Flag for USA

Past Weather in Pierre, South Dakota, USA — Yesterday and Last 2 Weeks

Now
68 °F

Thundershowers. Mostly cloudy.


Feels Like: 68 °F
Forecast: 90 / 66 °F
Wind: 10 mph from Northeast

Location: Pierre Regional Airport

Current Time: Jul 7, 2020 at 12:46:41 am

Latest Report: Jul 6, 2020 at 11:53 pm


Visibility: 8 mi

Pressure: 29.97 "Hg

Humidity: 93%

Dew Point: 66 °F

Location of PierreLocation

Past Weather in Pierre — Graph

°F

Pierre Temperature Yesterday

Maximum temperature yesterday: 82 °F (at 2:53 pm)
Minimum temperature yesterday: 64 °F (at 12:53 am)
Average temperature yesterday: 72 °F

High & Low Weather Summary for the Past Weeks

 TemperatureHumidityPressure
High95 °F (Jul 4, 3:53 pm)100% (Jun 22, 4:32 am)30.06 "Hg (Jun 22, 4:32 am)
Low49 °F (Jun 23, 5:53 am)17% (Jul 1, 4:53 pm)29.35 "Hg (Jun 28, 7:53 pm)
Average75 °F68%29.80 "Hg
* Reported Jun 21 11:53 pm — Jul 6 11:41 pm, Pierre. Weather by CustomWeather, © 2020

Note: Actual official high and low records may vary slightly from our data, if they occured in-between our weather recording intervals... More about our weather records

Pierre Weather History for the Previous 24 Hours

Scroll right to see more
 ConditionsComfort  
Time TempWeatherWind HumidityBarometerVisibility
11:41 pm
Mon, Jul 6
67 °FThundershowers. Fog.9 mph93%30.01 "Hg5 mi
11:20 pm70 °FStrong thunderstorms. Overcast.40 mph84%30.04 "Hg2 mi
11:09 pm71 °FThundershowers. Overcast.23 mph81%30.01 "Hg10 mi
10:53 pm71 °FPassing clouds.5 mph84%29.89 "Hg10 mi
9:53 pm71 °FPassing clouds.7 mph84%29.88 "Hg10 mi
8:53 pm74 °FPassing clouds.9 mph76%29.86 "Hg10 mi
7:53 pm78 °FPartly sunny.13 mph66%29.88 "Hg10 mi
6:53 pm81 °FPartly sunny.12 mph56%29.89 "Hg10 mi
5:53 pm81 °FPartly sunny.7 mph58%29.92 "Hg10 mi
5:38 pm78 °FThundershowers. Partly sunny.8 mph66%29.96 "Hg10 mi
5:15 pm78 °FThunderstorms. Partly sunny.7 mph71%29.96 "Hg10 mi
4:53 pm77 °FScattered clouds.10 mph71%29.91 "Hg10 mi
4:43 pm75 °FLight rain. More clouds than sun.8 mph79%29.96 "Hg10 mi
4:10 pm80 °FThunderstorms. Partly sunny.3 mph54%29.97 "Hg10 mi
3:53 pm82 °FPassing clouds.8 mph55%29.92 "Hg10 mi
2:53 pm82 °FPassing clouds.6 mph56%29.94 "Hg10 mi
1:53 pm80 °FSunny.8 mph60%29.96 "Hg10 mi
12:53 pm76 °FScattered clouds.6 mph67%29.99 "Hg10 mi
11:53 am74 °FSunny.8 mph74%29.98 "Hg10 mi
10:53 am71 °FLight rain. Scattered clouds.5 mph81%29.97 "Hg10 mi
9:53 am70 °FSunny.5 mph84%29.96 "Hg10 mi
8:53 am71 °FSunny.6 mph81%29.94 "Hg10 mi
7:53 am68 °FSunny.7 mph87%29.92 "Hg10 mi
6:53 am65 °FPassing clouds.8 mph97%29.95 "Hg10 mi
5:53 am64 °FClear.5 mph97%29.96 "Hg10 mi
4:53 am64 °FPassing clouds.No wind94%29.95 "Hg10 mi
3:53 am65 °FPassing clouds.9 mph91%29.93 "Hg10 mi
2:53 am66 °FPassing clouds.No wind90%29.90 "Hg10 mi
1:53 am66 °FLight rain. Overcast.8 mph90%29.93 "Hg10 mi
12:53 am64 °FRain. Fog.7 mph97%29.99 "Hg6 mi
12:34 am66 °FThundershowers. Fog.5 mph90%30.06 "Hg5 mi
12:00 am66 °FThunderstorms. Overcast.12 mph90%30.00 "Hg8 mi
Weather by CustomWeather, © 2020

See weather overview